Regional Weather Roundup
Issued by NWS Northern Indiana

Home | Current Version | Previous Version | Graphics & Text | Print | Product List | Glossary On
Versions: 1 2 3 4 5 6 7 8 9 10 11 12 13 14 15 16 17 18 19 20 21 22 23 24 25 26 27 28 29 30 31 32 33 34 35 36 37 38 39 40 41 42 43 44 45 46 47 48 49 50
000
ASUS43 KIWX 010910
RWRIWX

KIWX WEATHER ROUNDUP
NATIONAL WEATHER SERVICE NORTHERN INDIANA
500 AM EDT TUE SEP 01 2015

NOTE: "FAIR" INDICATES FEW OR NO CLOUDS BELOW 12,000 FEET WITH NO
SIGNIFICANT WEATHER AND/OR OBSTRUCTIONS TO VISIBILITY.

* THESE STATIONS ARE NOT UNDER NWS QUALITY CONTROL. THEY ALSO MAY NOT
  REPORT WEATHER SUCH AS PRECIPITATION OR FOG.

INZ001>027-011000-
NORTHERN INDIANA

CITY           SKY/WX    TMP DP  RH WIND       PRES   REMARKS
GARY*          CLEAR     73  69  88 CALM      30.06R
VALPARAISO     PTCLDY    69  67  93 CALM      30.07S
MICHIGAN CITY* CLEAR     68  68 100 CALM      30.07S
LAPORTE*       FOG      N/A N/A N/A CALM      30.08S VSB 1/4
KNOX*          CLEAR     66  66 100 S5        30.07S
SOUTH BEND     CLEAR     68  67  96 CALM      30.08S FOG
GOSHEN         CLEAR     68  66  93 S3        30.08S FOG
MONTICELLO*    CLEAR     70  70  99 S3        30.07S
LOGANSPORT*    MOCLDY    66  63  88 S3        30.09S FOG
ROCHESTER*     CLEAR     72  70  94 CALM      30.09S
WARSAW*        CLEAR     66  66 100 CALM      30.09S FOG
ANGOLA*        CLOUDY    66  55  68 CALM      30.09R VSB 1/4
FORT WAYNE     CLEAR     69  66  90 W5        30.09S
HUNTINGTON*    CLEAR     69  65  86 CALM      30.09S
MARION*        CLEAR     64  59  84 CALM      30.11S FOG

$$
INZ028>050-011000-
CENTRAL INDIANA

CITY           SKY/WX    TMP DP  RH WIND       PRES   REMARKS
LAFAYETTE      PTCLDY    69  67  93 CALM      30.08S
KOKOMO*        PTCLDY    66  48  52 S3        30.10R
MUNCIE*        CLEAR     68  67  96 SW6       30.11R
INDIANAPOLIS   PTCLDY    71  67  87 SW3       30.10R

$$
MIZ043>046-050>051-056>058-064>065-071>073-077>080-011000-
SOUTHWEST LOWER MICHIGAN

CITY           SKY/WX    TMP DP  RH WIND       PRES   REMARKS
BATTLE CREEK   CLEAR     67  64  90 S3        30.08S FOG
BENTON HARBOR  CLEAR     66  65  96 CALM      30.05S FOG
COLDWATER*     CLEAR     63  63 100 CALM      30.08S FOG
HILLSDALE*     CLEAR     65  65 100 CALM      30.09F FOG
HOLLAND        CLEAR     66  65  96 CALM      30.06S FOG
GRAND RAPIDS   CLEAR     65  64  97 CALM      30.07R FOG
KALAMAZOO      CLEAR     65  63  93 CALM      30.07F FOG
STURGIS*       CLEAR     66  66 100 CALM      30.08S FOG
THREE RIVERS*  FOG       65  65 100 CALM      30.08S VSB 1/4

$$
OHZ001>008-015>018-024>025-011000-
NORTHWEST OHIO

CITY           SKY/WX    TMP DP  RH WIND       PRES   REMARKS
WAUSEON*       FAIR      64  64 100 CALM      30.08S FOG
DEFIANCE       PTCLDY    68  66  93 CALM      30.08S FOG
FINDLAY        CLEAR     69  66  90 S3        30.08S FOG
TOLEDO EXPRESS CLEAR     66  65  96 CALM      30.07S FOG
TOLEDO METCALF CLEAR     69  65  86 CALM      30.08S FOG
LIMA           CLEAR     68  66  93 S5        30.10S FOG

$$
AND FOR LAKE MICHIGAN COASTAL AND OPEN LAKE BUOY OBSERVATIONS

STATION/POSITION TEMP    WIND        PRES    VSBY  WAVE
                 AIR SEA DIR/SP/G                  HT/PER
                 (F)     (DEG/KT/KT) (MB)    (MI)  (FT/S)
CALUMET HARBOR    74     170/  5/  5   N/A
MICHIGAN CITY     74     160/ 10/ 12   N/A
BURNS HARBOR      73     180/  8/ 11 1017.9S
SAINT JOSEPH      74     150/  5/  9 1017.6F
SOUTH LAKE BUOY   71 69  180/  8/  8 1016.7R
4 MI NW BRIDGMAN  72 71  240/  6/  6   N/A           1
MICHIGAN CITY     73 72  210/  6/  8   N/A           1

$$
&&



USA.gov is the U.S. government's official web portal to all federal, state and local government web resources and services.